EDT,Max TemperatureF,Mean TemperatureF,Min TemperatureF,Max Dew PointF,MeanDew PointF,Min DewpointF,Max Humidity, Mean Humidity, Min Humidity, Max Sea Level PressureIn, Mean Sea Level PressureIn, Min Sea Level PressureIn, Max VisibilityMiles, Mean VisibilityMiles, Min VisibilityMiles, Max Wind SpeedMPH, Mean Wind SpeedMPH, Max Gust SpeedMPH,PrecipitationIn, CloudCover, Events, WindDirDegrees
2011-10-1,51,43,35,37,32,30,92,69,46,30.33,30.26,30.15,10,10,10,21,9,31,0.00,4,,32
2011-10-2,62,47,31,45,38,30,92,67,42,30.28,30.21,30.14,10,10,10,10,2,13,0.00,1,,9
2011-10-3,66,52,37,48,41,35,93,69,44,30.24,30.20,30.15,10,9,5,9,2,14,0.00,1,,20
2011-10-4,75,58,40,51,44,39,96,66,35,30.30,30.24,30.19,10,10,10,7,1,10,0.00,1,,279
2011-10-5,76,61,46,55,49,43,86,68,49,30.27,30.24,30.21,10,10,10,9,2,14,0.00,2,,24
2011-10-6,75,63,50,55,50,45,93,70,46,30.30,30.27,30.23,10,10,7,9,2,14,0.00,0,,40
2011-10-7,83,67,50,54,51,48,96,65,34,30.32,30.26,30.22,10,9,4,12,3,18,0.00,3,,180
2011-10-8,83,74,65,54,52,50,63,49,34,30.29,30.25,30.20,10,10,10,15,5,24,0.00,2,,212
2011-10-9,81,67,53,53,51,48,86,60,33,30.34,30.29,30.25,10,10,10,10,3,15,0.00,1,,233
2011-10-10,82,65,48,53,48,43,93,60,26,30.29,30.19,30.09,10,9,5,13,2,16,0.00,4,,135
2011-10-11,83,68,52,55,49,38,89,55,21,30.08,30.01,29.94,10,10,8,13,2,22,0.00,3,,129
2011-10-12,79,65,51,52,49,46,83,58,32,29.94,29.85,29.75,10,10,10,13,4,18,0.00,4,,115
2011-10-13,66,57,48,58,52,47,96,80,63,29.74,29.55,29.36,10,9,4,10,1,13,0.20,6,Rain,18
2011-10-14,58,52,46,55,49,42,93,87,80,29.43,29.33,29.26,10,7,2,25,12,31,0.35,8,Rain,265
2011-10-15,54,49,43,43,39,33,89,68,46,29.69,29.51,29.37,10,8,5,32,16,40,0.27,6,Rain,269
2011-10-16,59,53,46,39,34,29,76,55,33,29.70,29.63,29.56,10,10,10,35,13,43,T,4,,252
2011-10-17,54,51,47,38,34,28,59,53,46,29.70,29.61,29.57,10,10,10,28,14,37,T,6,Rain,267
2011-10-18,51,48,44,41,38,35,83,69,54,29.92,29.83,29.71,10,10,10,15,7,20,0.05,7,Rain,326
2011-10-19,49,42,35,41,38,34,100,83,65,29.91,29.82,29.64,10,10,8,26,12,38,0.10,7,Rain,47
2011-10-20,46,45,44,43,40,38,89,80,71,29.71,29.53,29.42,10,7,2,25,18,38,0.77,8,Rain,355
2011-10-21,49,42,34,39,35,32,89,73,56,30.05,29.92,29.70,10,10,10,20,9,26,0.01,7,Rain,308
2011-10-22,62,49,35,39,35,31,92,63,34,30.04,30.02,29.99,10,10,10,12,3,15,0.00,1,,227
2011-10-23,62,47,31,45,36,29,96,68,39,30.01,29.91,29.74,10,9,5,13,3,17,0.04,4,Rain,239
2011-10-24,53,44,34,47,40,33,92,73,54,30.06,29.87,29.72,10,10,8,21,7,25,0.01,5,,260
2011-10-25,45,39,33,43,40,33,96,89,82,30.13,30.02,29.93,10,6,2,14,4,20,1.19,7,Rain,72
2011-10-26,49,45,40,41,38,35,92,79,65,29.98,29.94,29.90,10,10,8,14,7,20,T,8,Rain,34
2011-10-27,47,39,30,38,35,30,92,75,58,30.14,30.00,29.94,10,10,4,12,2,15,0.06,6,Rain,277
2011-10-28,51,39,27,39,31,25,92,67,42,30.18,30.12,30.04,10,10,10,10,2,15,0.04,4,Rain,192
2011-10-29,47,39,31,37,35,29,96,83,70,30.12,30.04,29.99,10,8,3,7,1,9,T,5,,155
2011-10-30,51,40,28,36,30,26,92,68,44,30.16,30.08,29.96,10,6,2,13,5,24,T,4,Rain,140
2011-10-31,54,47,40,43,41,37,96,75,54,30.11,30.00,29.94,10,8,4,12,4,20,0.02,7,Rain,217